EHI
4 2 0 0 0 0 0 0 0 0 0 0 0 0 0 0 0 0 0 0 0 0 1 3 4 7 9 8 5 4 3 4 4 4 4 5 5 4 3 3 2 1 1 0 0 0 1 1 1
2 1 0 0 0 0 0 0 0 0 0 0 0 0 0 0 0 0 0 0 0 1 2 3 4 7 9 8 5 4 3 4 4 4 4 4 4 4 5 5 5 3 2 1 1 0 0 0 0
0 0 0 0 0 0 0 0 0 0 0 0 0 0 0 0 0 0 0 0 0 2 3 4 5 6 7 6 5 3 4 5 6 5 5 4 3 4 5 7 7 5 4 3 2 1 0 0 0
0 0 0 0 0 0 0 0 0 0 0 0 0 0 0 0 0 0 0 0 0 1 3 5 6 6 7 6 5 3 4 5 6 5 4 3 3 3 5 7 8 6 4 3 3 2 2 1 0
0 0 0 0 0 0 0 0 0 0 0 0 0 0 0 0 0 0 0 0 0 1 3 6 7 6 7 7 6 4 3 4 4 3 3 3 3 3 4 6 6 5 4 3 3 3 2 2 1
0 0 0 0 0 0 0 0 0 0 0 0 0 0 0 0 0 0 0 0 0 1 3 5 6 6 6 7 7 5 3 2 1 1 2 2 2 2 3 4 4 4 3 3 3 2 1 1 2
0 0 0 0 0 0 0 0 0 0 0 0 0 0 0 0 0 0 0 0 0 0 1 3 4 4 4 5 5 5 3 1 0 0 1 1 1 1 1 2 3 3 3 2 1 1 0 1 3
0 0 0 0 0 0 0 0 0 0 0 0 0 0 0 0 0 0 0 0 0 0 0 1 2 3 4 4 4 4 2 1 1 0 0 0 0 0 0 1 2 2 2 1 0 0 0 1 3
0 0 0 0 0 0 0 0 0 0 0 0 0 0 0 0 0 0 0 0 0 0 0 0 1 2 2 2 2 2 1 1 1 0 0 0 0 0 0 0 0 1 0 0 0 0 1 2 2
1 1 0 0 0 0 0 0 0 0 0 0 0 0 0 0 0 0 0 0 0 0 0 0 0 1 1 1 1 1 1 1 0 0 0 1 0 0 0 0 0 0 0 0 0 0 1 2 2
2 1 0 0 0 0 0 0 0 0 0 0 0 0 0 0 0 0 0 0 0 0 0 0 0 0 0 0 0 0 0 0 0 0 0 0 0 0 0 0 1 0 0 0 0 0 1 1 2
2 1 0 0 0 0 0 0 0 0 0 0 0 0 0 0 0 0 0 0 0 0 0 0 0 0 0 0 0 0 0 0 0 0 0 0 0 0 0 0 0 0 0 0 0 1 2 2 2
1 0 0 0 0 0 0 0 0 0 0 1 2 1 0 0 0 0 0 0 0 0 0 0 0 0 0 0 0 0 0 0 0 0 0 0 0 0 0 0 0 0 0 0 0 1 2 3 3
0 0 0 0 0 0 0 0 0 0 1 2 2 1 0 0 0 0 0 1 1 0 0 0 0 0 0 0 0 0 0 0 0 0 0 0 0 0 0 0 0 0 0 0 0 0 1 2 2
0 0 0 0 0 0 0 0 0 0 1 1 1 1 0 0 0 0 0 1 1 0 0 0 0 0 0 0 0 0 0 0 0 0 0 0 0 0 0 0 0 0 0 0 0 0 0 1 1
0 0 0 0 0 0 0 0 1 1 1 1 0 0 0 0 0 0 0 1 1 0 0 0 0 0 0 0 0 0 0 0 0 0 0 0 0 0 0 0 0 0 0 0 0 0 0 0 0
0 0 0 0 0 0 0 0 1 2 2 1 0 0 0 0 0 0 0 0 0 0 0 0 0 0 0 0 0 0 0 0 0 0 0 0 0 0 0 0 0 0 0 0 0 0 0 0 0
0 0 0 0 0 0 0 0 1 3 2 1 0 0 0 1 0 0 0 0 0 0 0 0 0 0 0 0 0 0 0 0 0 0 0 1 1 0 0 0 0 0 0 0 0 0 0 0 0
0 0 0 0 0 0 0 1 2 3 3 1 0 0 0 0 0 0 1 1 1 0 0 0 0 0 0 0 0 0 0 0 1 1 1 2 2 1 1 1 1 1 1 1 1 1 1 0 0
0 0 0 0 0 0 0 1 2 3 3 2 1 1 0 0 0 0 1 1 1 0 0 0 0 0 0 0 0 1 1 1 2 3 3 3 3 3 3 3 3 3 3 3 2 2 2 1 0
0 0 0 0 0 0 0 0 1 2 2 3 2 1 0 0 0 0 0 0 0 0 0 0 0 0 0 1 1 2 2 3 3 4 4 4 3 4 4 4 4 4 4 3 2 2 2 1 0
0 0 0 0 0 0 0 0 0 1 1 2 3 2 0 0 0 0 0 0 0 0 0 0 0 1 1 2 3 3 3 3 3 3 4 3 3 3 4 3 3 3 2 1 1 1 1 1 1
0 0 0 0 0 0 0 0 0 0 0 1 2 1 0 0 0 0 0 0 0 0 1 1 1 2 3 3 3 3 3 3 4 3 3 3 2 1 1 1 1 1 0 0 0 0 1 2 2
0 0 0 0 0 0 0 0 0 0 0 0 1 1 0 0 0 0 0 1 1 1 3 3 3 3 3 4 4 4 4 4 4 4 3 3 2 0 0 0 0 0 0 0 0 0 1 2 3
0 0 0 0 0 0 0 0 0 0 0 0 0 0 0 0 0 0 1 2 3 4 5 6 5 4 4 4 4 5 5 4 5 4 3 3 2 1 0 0 0 1 1 1 0 0 1 2 2
0 0 0 0 0 0 0 0 0 0 0 0 0 0 0 0 0 0 1 3 4 6 7 7 6 4 3 4 4 5 5 4 4 4 4 3 3 2 1 0 0 1 1 1 0 0 0 1 1
0 0 0 0 0 0 0 0 0 0 0 0 0 1 1 1 0 1 2 3 5 7 8 8 6 4 3 3 4 4 4 3 3 4 3 3 3 3 2 1 0 0 1 0 0 0 0 0 0
0 0 0 0 0 0 0 0 0 0 0 0 1 2 3 2 1 2 3 3 5 8 9 8 7 4 3 3 3 3 3 4 3 3 3 3 3 3 2 1 0 1 1 1 0 0 0 0 0
0 0 0 0 0 0 0 0 0 0 0 0 1 3 3 4 4 4 4 4 6 10 9 8 6 5 4 4 3 3 4 4 3 3 3 3 3 3 3 2 0 1 2 2 1 0 0 0 0
0 0 0 0 0 0 0 0 0 0 0 1 2 3 4 4 5 6 5 5 8 11 10 7 6 5 5 5 4 3 4 3 2 3 3 3 3 4 4 3 1 0 1 2 2 1 0 0 0
Wind_Speed
7 6 3 1 2 4 2 2 1 2 3 2 4 5 5 3 2 2 0 3 4 3 2 4 6 7 8 8 9 9 9 10 10 10 11 11 10 10 10 10 10 11 11 11 11 10 11 11 11
5 5 2 1 4 3 3 2 2 2 3 3 4 5 5 4 2 3 2 3 4 3 2 3 6 7 7 7 8 9 9 9 9 9 10 10 10 10 9 9 10 10 10 10 10 10 10 10 10
5 3 1 3 3 2 1 1 3 4 3 2 4 4 3 2 2 2 2 5 4 3 2 3 7 7 7 7 8 8 8 8 9 8 8 9 9 9 8 9 9 9 9 9 9 9 9 9 9
3 1 2 4 2 0 2 2 3 4 3 4 4 4 3 2 2 3 5 5 5 3 2 3 7 6 7 7 7 7 7 7 8 8 7 7 7 8 8 8 7 8 8 8 9 9 9 8 8
1 3 4 3 2 1 2 2 2 2 2 3 3 4 3 3 4 6 6 5 4 2 1 2 5 6 6 6 6 6 7 7 6 6 6 6 6 6 6 6 7 7 7 7 8 8 8 7 7
3 3 4 3 2 2 2 3 3 4 3 3 4 3 2 2 4 5 5 4 3 3 1 1 4 5 5 5 5 6 6 6 6 5 5 6 6 5 5 5 5 6 6 7 7 7 7 6 6
3 3 2 1 1 1 2 2 3 3 3 2 3 4 1 1 2 4 4 4 3 2 2 1 1 2 3 4 5 5 5 5 5 5 5 5 5 4 4 4 4 4 5 6 6 6 6 5 5
3 4 2 1 1 0 2 2 2 3 3 3 3 5 3 3 4 5 5 4 3 3 2 1 1 1 1 1 3 4 4 4 4 4 4 4 3 2 2 2 2 3 4 5 6 5 5 5 5
3 4 0 2 2 2 2 3 2 2 4 2 2 3 4 8 7 6 4 3 2 2 1 1 1 1 1 1 2 2 3 3 2 2 2 2 1 1 1 1 2 2 3 4 5 5 4 4 4
3 2 4 3 3 3 3 3 4 4 3 2 4 4 7 9 7 6 4 4 2 1 0 1 0 0 1 1 1 1 1 1 1 1 1 1 1 1 1 1 0 1 2 3 4 4 3 3 2
3 4 2 1 2 4 4 3 3 6 2 3 6 9 9 8 6 5 4 3 3 2 1 1 0 0 1 1 1 1 1 1 1 1 1 1 1 1 1 1 1 1 0 1 1 2 2 2 2
2 2 1 1 1 4 5 4 3 3 3 4 8 11 10 8 7 6 5 3 2 2 1 1 1 1 0 1 0 0 1 1 1 1 1 1 1 1 0 0 0 0 0 1 1 1 2 2 2
1 1 1 1 3 4 6 4 3 1 3 8 10 9 8 7 6 4 4 3 3 2 2 1 1 1 1 1 0 1 1 1 0 1 1 1 1 1 0 0 0 0 1 1 2 2 2 2 2
1 1 1 1 3 3 6 3 3 1 6 9 9 8 7 6 5 4 3 3 3 3 2 1 1 2 2 1 1 1 1 1 1 0 0 1 1 1 0 0 0 0 1 1 2 2 2 2 2
2 3 4 3 3 2 6 3 0 3 7 9 8 7 6 5 5 5 5 4 4 3 2 2 2 2 2 1 1 1 1 1 1 0 0 1 1 1 1 1 1 1 1 2 3 3 3 2 2
4 4 3 2 2 2 5 1 2 4 8 7 7 7 6 5 5 4 4 4 3 3 2 2 2 2 2 1 1 1 1 1 1 0 0 1 1 1 1 1 1 2 2 2 3 3 3 2 2
4 2 1 2 1 2 3 2 1 4 6 6 7 6 5 4 4 4 4 4 4 4 3 2 2 2 2 1 1 1 1 1 1 1 1 0 1 2 2 1 1 2 2 2 3 3 3 3 2
2 1 1 2 2 2 1 2 1 4 5 6 6 6 5 5 6 4 4 4 3 3 3 3 2 2 2 2 2 2 2 1 1 1 1 1 1 2 2 2 2 2 3 3 3 3 3 3 2
4 3 2 3 2 3 2 2 2 4 4 5 6 6 6 6 5 4 4 4 3 3 3 3 3 2 2 2 1 1 1 0 1 0 1 1 1 2 2 2 2 2 2 2 3 3 4 3 3
3 2 1 2 1 3 1 2 2 4 6 7 7 8 8 6 4 4 4 4 4 4 3 3 3 2 2 2 1 1 2 1 1 1 1 1 1 2 3 3 2 2 3 3 3 3 3 2 2
3 5 4 3 1 2 2 3 2 2 3 3 5 6 6 8 7 6 5 5 4 4 4 4 3 3 2 2 2 3 2 2 2 2 1 1 1 2 2 3 3 3 3 3 2 3 3 2 1
4 5 5 4 3 1 2 2 5 3 3 5 6 6 7 8 7 6 6 5 5 5 4 4 3 3 2 3 3 3 2 2 1 0 1 1 1 2 2 3 3 3 2 2 2 2 2 3 2
4 2 4 3 4 1 1 1 7 1 4 7 8 9 8 8 8 8 8 7 6 5 4 3 3 2 2 3 3 3 2 2 1 1 2 1 1 1 2 2 3 3 2 2 2 2 2 2 2
4 6 6 5 5 1 2 3 6 4 7 6 7 8 8 8 7 7 6 5 5 4 4 3 3 3 2 3 3 4 4 3 3 2 1 0 0 1 1 2 2 2 2 2 2 2 2 2 2
5 6 4 4 3 4 2 2 8 6 6 7 8 8 8 8 7 7 7 7 6 6 5 4 4 3 3 3 3 4 4 4 4 3 3 2 1 1 1 2 2 2 2 2 2 2 2 2 3
4 8 7 5 4 4 1 4 7 5 3 4 4 5 6 7 7 8 8 8 8 7 6 6 5 4 4 4 3 3 3 3 2 3 3 3 2 2 2 2 2 2 3 3 2 2 2 2 2
6 3 6 7 2 0 4 5 7 1 0 1 2 4 5 6 7 8 8 8 8 8 7 7 6 5 4 4 3 3 3 3 3 2 2 2 2 2 2 2 2 2 2 3 3 2 2 2 2
5 8 6 6 5 2 4 4 5 4 3 3 3 4 4 4 5 6 7 8 8 7 6 6 6 6 5 4 4 3 3 3 3 2 2 2 2 2 2 2 2 2 2 2 3 2 2 2 2
4 4 5 4 5 6 3 7 6 7 6 6 6 5 5 5 6 6 6 7 6 6 6 6 5 4 4 4 3 3 3 3 3 2 3 3 2 2 3 3 2 2 2 2 2 2 2 3 2
4 6 8 6 4 4 4 8 4 5 6 6 6 5 4 4 5 6 6 6 6 6 6 5 5 5 5 5 4 4 3 3 3 3 3 2 2 2 3 3 2 2 2 2 2 3 3 3 3
Wind_Direction
160 152 152 166 52 44 11 343 41 49 58 52 74 81 89 74 94 135 247 130 126 124 134 140 135 129 127 122 117 113 112 116 118 119 122 124 126 127 127 128 132 137 139 139 139 141 141 142 141
153 162 183 58 70 51 338 343 47 60 126 117 72 65 69 60 57 104 122 139 128 129 130 146 134 131 127 123 120 115 114 113 117 120 124 126 126 126 128 132 137 140 143 144 144 143 143 143 143
167 194 77 59 70 143 217 10 101 101 108 78 75 58 73 83 104 140 156 137 119 116 128 156 140 134 129 126 123 121 118 117 117 118 122 127 128 128 127 130 136 140 143 147 148 146 145 143 144
163 83 51 58 43 243 177 164 124 115 62 47 83 68 60 60 134 134 126 124 115 109 125 152 139 132 129 129 128 127 124 122 120 118 120 128 132 130 129 127 132 141 141 143 145 143 142 143 146
85 76 54 44 17 356 117 130 112 97 72 59 78 84 42 16 84 108 117 123 124 115 119 147 138 133 135 137 138 137 132 127 123 121 126 134 138 135 135 133 135 141 146 147 148 146 142 143 149
62 65 63 40 14 33 91 109 95 81 88 84 84 87 39 45 94 118 121 123 126 128 126 144 143 135 133 139 143 141 134 130 128 124 124 133 135 133 135 139 139 144 150 151 151 148 145 142 148
95 76 79 77 46 52 112 94 103 111 98 106 115 98 70 70 106 109 104 102 98 95 92 79 90 119 126 135 144 140 136 133 130 124 121 121 119 124 131 143 143 152 153 149 149 154 152 144 143
129 91 51 46 122 118 129 99 91 113 111 115 111 133 178 188 120 99 89 86 80 74 71 53 37 51 67 97 135 133 132 127 125 127 126 123 121 125 138 146 153 159 159 158 158 162 163 154 154
111 74 109 214 168 167 132 108 97 92 108 102 102 144 159 135 120 105 94 85 89 97 60 62 64 53 69 92 112 114 126 114 105 102 117 96 53 47 59 152 175 164 163 168 166 169 168 159 155
101 128 220 206 175 150 136 127 144 113 105 86 78 92 116 128 130 131 138 146 153 172 169 77 84 81 61 96 70 51 62 65 73 70 63 58 54 51 49 29 134 193 192 181 166 159 154 143 118
150 192 218 208 156 131 129 132 128 127 149 185 154 141 137 136 142 152 164 170 182 186 184 123 158 127 96 68 75 52 53 61 63 70 71 69 55 40 24 24 0 358 57 156 147 149 135 131 129
148 257 203 198 115 119 138 138 115 144 192 159 147 143 144 151 163 173 177 180 172 169 206 181 156 146 129 99 84 88 85 89 88 74 77 91 82 62 28 23 40 67 115 130 118 114 120 126 135
130 302 18 114 79 113 113 116 129 131 106 117 126 134 147 158 172 176 166 163 164 182 207 206 183 177 178 144 184 127 126 136 109 78 82 109 122 125 137 83 44 143 129 136 124 118 116 112 114
139 77 41 65 92 106 107 94 91 125 123 124 133 145 155 167 168 154 152 160 171 184 194 196 188 179 166 162 173 171 151 143 108 97 131 121 125 131 123 102 116 98 104 126 128 126 117 107 109
70 52 27 32 69 106 99 59 156 146 134 137 146 151 157 171 167 173 176 175 178 181 182 184 181 151 148 167 180 165 158 139 142 175 142 127 125 131 109 75 74 79 94 107 113 108 100 100 98
45 51 31 330 51 97 110 204 242 141 139 148 155 158 165 178 182 186 179 178 180 171 173 196 170 126 129 149 162 140 127 132 142 136 108 119 121 122 110 88 66 77 94 105 112 104 99 94 90
32 50 355 317 349 108 117 219 220 145 147 160 166 169 173 178 190 196 187 184 182 179 177 174 147 133 135 129 114 107 103 107 112 111 104 126 125 121 114 98 77 90 94 96 113 109 113 107 95
214 194 230 247 270 109 142 231 179 158 164 177 175 174 179 190 205 197 186 178 173 172 170 163 147 137 125 101 83 78 74 63 69 84 102 107 114 119 111 102 91 96 94 90 102 108 102 108 105
167 163 212 240 201 135 208 236 215 174 173 184 178 180 190 207 207 185 175 168 158 158 155 161 149 142 121 107 107 105 97 72 59 78 100 103 110 115 109 108 101 103 108 116 118 115 106 98 104
162 158 235 295 144 145 181 277 245 195 200 195 186 189 196 200 192 184 174 166 170 171 169 166 165 158 152 148 140 132 125 113 92 46 59 79 110 125 128 122 124 126 121 116 121 123 117 115 119
195 183 192 190 47 54 85 329 291 246 201 196 193 190 193 198 198 194 186 184 177 182 185 189 185 172 162 141 108 92 74 57 48 39 38 46 110 121 120 130 128 129 133 142 146 145 140 144 124
238 209 176 159 130 261 123 279 283 237 220 215 210 199 199 201 195 190 191 190 191 196 189 187 183 173 160 141 133 136 134 136 159 141 91 53 65 98 117 125 128 129 129 139 152 134 134 141 147
208 134 132 137 137 74 36 165 283 241 234 231 220 209 206 199 191 190 193 195 195 189 181 182 173 168 160 150 150 144 139 141 124 106 89 61 45 72 107 126 128 130 132 137 130 120 122 135 143
129 73 60 53 74 49 236 172 274 236 225 225 215 210 209 199 190 191 188 181 182 176 171 168 165 175 164 154 155 158 159 150 141 142 139 130 54 62 109 139 141 146 148 153 152 139 138 148 142
101 96 42 6 16 256 257 193 251 249 228 209 207 207 204 193 183 183 177 179 183 180 178 172 170 182 175 163 170 175 174 168 173 180 180 178 185 201 201 171 170 170 174 171 160 148 158 163 161
162 140 156 186 209 276 318 240 259 267 244 207 196 192 187 182 183 186 185 184 187 186 182 176 180 187 180 178 184 181 178 178 191 196 193 195 204 215 201 188 189 191 184 179 169 166 180 166 173
136 156 156 128 133 356 286 287 304 319 13 159 168 170 184 186 187 189 185 184 186 186 186 185 183 185 185 186 180 176 181 189 201 207 199 204 208 203 187 186 192 196 188 181 172 178 190 176 185
133 142 106 118 140 220 287 278 254 256 234 220 196 190 192 184 188 188 186 187 187 185 181 177 179 186 187 182 185 189 192 195 194 187 201 207 209 198 189 190 186 187 184 178 171 175 187 180 199
115 108 108 112 143 153 227 265 226 214 210 207 212 203 190 186 189 188 187 180 169 165 167 171 176 178 181 184 187 186 189 189 185 190 205 208 205 194 199 202 193 191 188 182 173 186 183 186 203
166 164 150 150 185 163 173 264 275 213 207 194 207 212 196 187 185 182 175 164 158 161 165 169 174 182 190 186 179 186 190 182 189 205 213 203 204 206 203 197 192 200 201 193 192 203 198 195 206